JA0ZJX-13 Weather Reports


time (UTC)temp
F
wind
direction
speed
knots
gust
knots
rain 1hr
in
rain 24hr
in
rain mn
in
humidity
%
barometer
mb
20260509201332 39 176 0.0 0.0 0.00 0.00 0.00 80 1021.3
20260509200325 39 178 0.0 2.6 0.00 0.00 0.00 80 1021.3
20260509195334 39 176 0.9 2.6 0.00 0.00 0.00 80 1021.1
20260509194341 39 176 0.9 1.7 0.00 0.00 0.00 79 1021.0
20260509193330 40 178 0.9 2.6 0.00 0.00 0.00 79 1020.9
20260509192342 40 177 0.9 2.6 0.00 0.00 0.00 79 1020.7
20260509191331 40 176 0.0 0.0 0.00 0.00 0.00 78 1020.7
20260509190340 40 176 0.0 1.7 0.00 0.00 0.00 78 1020.5
20260509185330 40 177 0.9 2.6 0.00 0.00 0.00 77 1020.4
20260509184343 40 178 1.7 2.6 0.00 0.00 0.00 77 1020.3
20260509183334 41 177 0.0 0.0 0.00 0.00 0.00 78 1020.2
20260509182343 41 177 0.0 0.0 0.00 0.00 0.00 77 1020.3
20260509181337 41 178 0.0 0.0 0.00 0.00 0.00 77 1020.2
20260509180327 41 177 0.0 0.0 0.00 0.00 0.00 77 1020.1
20260509175335 41 176 0.0 0.0 0.00 0.00 0.00 76 1020.0
20260509174324 42 177 0.0 0.0 0.00 0.00 0.00 76 1019.8
20260509173339 42 176 0.0 2.6 0.00 0.00 0.00 75 1019.8
20260509172328 42 176 0.9 2.6 0.00 0.00 0.00 75 1019.7
20260509171337 42 176 1.7 2.6 0.00 0.00 0.00 75 1019.6
20260509170327 43 177 0.9 2.6 0.00 0.00 0.00 74 1020.5
20260509165339 43 176 0.9 2.6 0.00 0.00 0.00 73 1020.3
20260509164330 43 176 0.0 0.9 0.00 0.00 0.00 73 1020.2
20260509163339 43 176 0.0 1.7 0.00 0.00 0.00 72 1020.1
20260509162333 44 178 0.9 1.7 0.00 0.00 0.00 72 1020.0
20260509161341 44 176 0.9 1.7 0.00 0.00 0.00 71 1020.0
20260509160329 44 177 0.9 2.6 0.00 0.00 0.00 71 1020.0
20260509155338 44 177 0.9 2.6 0.00 0.00 0.00 71 1020.1
20260509154332 45 177 0.0 2.6 0.00 0.00 0.00 70 1019.9
20260509153341 45 159 1.7 3.5 0.00 0.00 0.00 69 1020.0
20260509152331 45 198 1.7 2.6 0.00 0.00 0.00 69 1020.0
20260509151341 46 198 1.7 1.7 0.00 0.00 0.00 69 1020.0
20260509150335 46 198 0.0 2.6 0.00 0.00 0.00 68 1020.0
20260509145342 46 198 0.9 2.6 0.00 0.00 0.00 67 1020.0
20260509144330 46 198 0.9 2.6 0.00 0.00 0.00 67 1020.0
20260509143339 46 198 0.9 2.6 0.00 0.00 0.00 67 1019.9
20260509142333 46 187 0.9 2.6 0.00 0.00 0.00 67 1019.7
20260509141342 47 188 0.9 3.5 0.00 0.00 0.00 66 1019.6
20260509140333 47 142 1.7 2.6 0.00 0.00 0.00 65 1019.6
20260509135324 48 141 0.0 0.9 0.00 0.00 0.00 64 1019.6
20260509134333 48 142 2.6 3.5 0.00 0.00 0.00 64 1019.4
20260509133342 48 192 0.0 2.6 0.00 0.00 0.00 64 1019.4
20260509132331 49 192 1.7 1.7 0.00 0.00 0.00 62 1019.3
20260509131324 49 192 0.0 0.9 0.00 0.00 0.00 61 1019.1
20260509130333 49 192 0.0 2.6 0.00 0.00 0.00 60 1019.0
20260509125342 50 192 1.7 2.6 0.00 0.00 0.00 59 1019.0
20260509124330 50 191 0.0 3.5 0.00 0.00 0.00 58 1018.9
20260509123342 50 175 0.0 2.6 0.00 0.00 0.00 57 1018.8
20260509122332 50 132 0.9 3.5 0.00 0.00 0.00 57 1018.7
20260509121341 51 123 1.7 3.5 0.00 0.00 0.00 56 1018.5
20260509120334 51 132 0.9 4.3 0.00 0.00 0.00 56 1018.5
20260509115343 52 134 2.6 3.5 0.00 0.00 0.00 55 1018.3
20260509114332 52 135 0.9 3.5 0.00 0.00 0.00 53 1018.3
20260509113341 53 125 0.9 2.6 0.00 0.00 0.00 51 1018.3
20260509112335 53 132 2.6 7.8 0.00 0.00 0.00 51 1017.9
20260509111325 53 127 3.5 6.1 0.00 0.00 0.00 52 1017.9
20260509110333 53 133 3.5 6.1 0.00 0.00 0.00 51 1017.6
20260509105342 54 128 3.5 5.2 0.00 0.00 0.00 51 1017.4
20260509104335 56 132 2.6 4.3 0.00 0.00 0.00 48 1017.2
20260509103343 57 292 1.7 5.2 0.00 0.00 0.00 45 1017.0
20260509102330 57 257 1.7 5.2 0.00 0.00 0.00 45 1016.9
20260509101323 57 290 3.5 7.8 0.00 0.00 0.00 43 1016.8
20260509100331 58 288 2.6 9.6 0.00 0.00 0.00 43 1016.5
20260509095341 58 296 4.3 6.1 0.00 0.00 0.00 42 1016.4
20260509094329 59 287 3.5 8.7 0.00 0.00 0.00 41 1016.3
20260509093343 59 277 4.3 10.4 0.00 0.00 0.00 39 1016.1
20260509092332 60 306 5.2 7.0 0.00 0.00 0.00 37 1015.9
20260509091341 61 267 4.3 9.6 0.00 0.01 0.00 38 1015.7
20260509090331 62 317 7.0 8.7 0.00 0.01 0.00 34 1015.5
20260509085342 62 281 4.3 12.2 0.00 0.01 0.00 37 1015.3
20260509084332 63 299 6.1 10.4 0.00 0.01 0.00 33 1015.1
20260509083341 63 346 4.3 11.3 0.00 0.01 0.00 32 1015.1
20260509082329 63 321 6.1 9.6 0.00 0.01 0.00 32 1015.0
20260509081342 63 31 3.5 12.2 0.00 0.01 0.00 33 1014.7
20260509080332 62 360 6.1 11.3 0.00 0.01 0.00 33 1014.7
20260509075340 62 42 5.2 13.9 0.00 0.01 0.00 34 1014.4
20260509074332 63 360 4.3 9.6 0.00 0.01 0.00 33 1014.4
20260509073341 63 360 4.3 11.3 0.00 0.01 0.00 33 1014.1
20260509072331 62 355 3.5 13.9 0.00 0.01 0.00 33 1014.1
20260509071338 63 69 7.8 14.8 0.00 0.02 0.00 33 1013.9
20260509070332 64 17 3.5 13.0 0.00 0.02 0.00 32 1013.5
20260509065341 64 18 7.8 14.8 0.00 0.02 0.00 32 1013.5
20260509064330 63 24 7.8 13.9 0.00 0.02 0.00 32 1013.2
20260509063339 64 61 7.0 12.2 0.00 0.02 0.00 33 1013.2
20260509062331 64 5 6.1 13.9 0.00 0.02 0.00 31 1013.4
20260509061341 65 15 6.1 12.2 0.00 0.02 0.00 31 1013.3
20260509060329 64 340 7.0 16.5 0.00 0.02 0.00 31 1013.3
20260509055338 65 64 7.8 14.8 0.00 0.02 0.00 31 1013.2
20260509054331 65 26 8.7 14.8 0.00 0.02 0.00 31 1013.2
20260509053340 66 34 5.2 14.8 0.00 0.02 0.00 31 1013.2
20260509052330 66 30 6.1 14.8 0.00 0.02 0.00 31 1013.3
20260509051343 65 53 5.2 15.6 0.00 0.02 0.00 30 1013.3
20260509050333 65 319 10.4 16.5 0.00 0.02 0.00 31 1013.4
20260509045342 65 318 5.2 13.0 0.00 0.02 0.00 30 1013.3
20260509044332 65 42 5.2 11.3 0.00 0.02 0.00 30 1013.2
20260509043326 65 49 6.1 18.2 0.00 0.02 0.00 31 1013.4
20260509042335 65 74 4.3 13.0 0.00 0.02 0.00 33 1013.4
20260509041344 65 355 5.2 13.9 0.00 0.02 0.00 33 1013.5
20260509040332 65 302 7.8 14.8 0.00 0.02 0.00 32 1013.4
20260509035325 64 17 5.2 14.8 0.00 0.02 0.00 33 1013.5
20260509034335 64 327 7.8 13.0 0.00 0.02 0.00 33 1013.4
20260509033326 64 350 5.2 14.8 0.00 0.02 0.00 34 1013.5
20260509032339 63 300 3.5 9.6 0.00 0.02 0.00 39 1013.3
20260509031330 63 341 5.2 10.4 0.00 0.02 0.00 40 1013.3
20260509030339 63 273 6.1 11.3 0.00 0.02 0.00 40 1013.6
20260509025328 61 214 3.5 9.6 0.00 0.02 0.00 44 1013.7
20260509024341 61 309 3.5 12.2 0.00 0.02 0.00 42 1013.7
20260509023329 62 344 8.7 12.2 0.00 0.02 0.00 42 1013.8
20260509022338 61 328 4.3 11.3 0.00 0.02 0.00 43 1013.7
20260509021328 61 333 9.6 14.8 0.00 0.02 0.00 43 1013.8
20260509020341 61 275 4.3 12.2 0.00 0.02 0.00 45 1013.9
20260509015329 60 342 5.2 10.4 0.00 0.02 0.00 46 1014.0
20260509014337 59 233 5.2 12.2 0.00 0.02 0.00 49 1014.1
20260509013330 60 325 4.3 10.4 0.00 0.02 0.00 48 1013.9
20260509012338 60 315 4.3 9.6 0.00 0.02 0.00 49 1013.8
20260509011326 59 355 5.2 9.6 0.00 0.02 0.00 49 1013.8
20260509010335 58 32 5.2 10.4 0.00 0.02 0.00 52 1013.8
20260509005328 58 261 3.5 13.0 0.00 0.02 0.00 51 1013.8
20260509004337 58 307 4.3 13.0 0.00 0.02 0.00 51 1013.8
20260509003325 58 344 5.2 12.2 0.00 0.02 0.00 51 1013.7
20260509002334 57 31 5.2 13.9 0.00 0.02 0.00 51 1013.4
20260509001328 56 355 7.0 15.6 0.00 0.02 0.00 52 1013.4
20260509000337 56 5 7.8 14.8 0.00 0.02 0.00 53 1013.4
20260508235327 56 19 6.1 17.4 0.00 0.02 0.00 53 1013.2
20260508234337 56 44 8.7 15.6 0.00 0.02 0.00 54 1013.1
20260508233330 56 5 5.2 13.0 0.00 0.02 0.00 56 1012.9
20260508232341 57 20 7.8 14.8 0.00 0.02 0.00 55 1012.7
20260508231330 57 71 6.1 15.6 0.00 0.02 0.00 53 1012.5
20260508230341 57 32 9.6 16.5 0.00 0.02 0.00 51 1012.3
20260508225329 57 360 4.3 12.2 0.00 0.02 0.00 52 1012.0
20260508224338 56 319 1.7 10.4 0.00 0.02 0.00 53 1011.9
20260508223328 56 346 4.3 13.0 0.00 0.02 0.00 54 1011.8
20260508222340 55 330 4.3 12.2 0.00 0.02 0.00 55 1012.7
20260508221328 55 324 4.3 10.4 0.00 0.02 0.00 56 1012.4
20260508220338 55 288 4.3 11.3 0.00 0.02 0.00 55 1012.0
20260508215325 56 338 2.6 5.2 0.00 0.02 0.00 53 1011.7
20260508214338 55 302 1.7 5.2 0.00 0.02 0.00 53 1011.3
20260508213325 55 232 4.3 7.8 0.00 0.02 0.00 54 1011.1
20260508212333 54 222 1.7 9.6 0.00 0.02 0.00 54 1010.7
20260508211326 54 186 3.5 12.2 0.00 0.02 0.00 54 1010.3
20260508210336 53 236 5.2 15.6 0.00 0.02 0.00 54 1010.0
20260508205325 52 211 7.8 15.6 0.00 0.02 0.00 56 1009.7
20260508204335 51 250 8.7 15.6 0.00 0.02 0.00 56 1009.8
20260508203327 51 215 7.0 13.0 0.00 0.02 0.00 56 1009.8
20260508202335 51 206 7.0 17.4 0.00 0.02 0.00 57 1009.6